Other Public Products
Issued by NWS Charleston, SC

Current Version | Previous Version | Text Only | Print | Product List | Glossary Off
Versions: 1 2 3 4 5 6 7 8 9 10 11 12 13 14 15 16 17 18 19 20 21 22 23 24 25 26 27 28 29 30 31 32 33 34 35 36 37 38 39 40 41 42 43 44 45 46 47 48 49 50

713
FPUS82 KCHS 240712
OPUCHS

TEST...KCHS/KSAV Gateway Observations...TEST
National Weather Service Charleston SC
300 AM EDT MON APR 24 2017

NOTE: "fair" indicates few or no clouds below 12,000 feet with no
significant weather and/or obstructions to visibility.

SCZ050-WAZ558-NCZ071-TXZ119-213-PAZ071-DCZ001-FLZ074-172-MI076-
NYZ176-178-MAZ016-IL014-TNZ027-NJZ106-GAZ044-MD014-240800-

...Gateway Observations for Charleston International...

CITY           SKY/WX    TMP DP  RH WIND       PRES   REMARKS
Chas Airport   TSTM      73  68  84 S17G23    29.70F
Seattle        CLOUDY    47  45  93 S7        29.81F
Charlotte      HVY RAIN  52  49  89 NE12      29.83F FOG
Dallas DFW     CLEAR     56  44  64 S6        29.96F
Dallas Love    CLEAR     56  46  69 CALM      29.97F
Philladelphia  CLOUDY    51  45  79 CALM      30.11S
Wash National  LGT RAIN  55  48  77 E6        30.07F
Baltimore      CLOUDY    53  49  86 E5        30.07F
Miami          FOG       71  69  93 NW6       29.75F VSB 1/2
Detroit        PTCLDY    46  39  76 NE7       30.06F
Newark         MOCLDY    49  42  77 S3        30.11F
Laguardia      MOCLDY    51  41  68 S3        30.10F
J F K          MOCLDY    46  45  96 SE3       30.12F
Boston Logan   PTCLDY    46  38  73 SW7       30.10S
Ft. Lauderdale MOCLDY    70  70 100 NW5       29.74F
Chicago O`Hare PTCLDY    42  38  85 NE6       30.02F
Chicago Midway PTCLDY    45  39  79 NE7       30.03F
Houston Bush   CLEAR     56  49  77 CALM      29.98S
Houston Hobby  CLEAR     57  51  80 SW6       29.98S
Nashville      CLOUDY    54  51  90 NE6       29.82F
Atlanta        DRIZZLE   53  52  96 NE10      29.76F FOG

$$

GAZ044-118-TXZ119-213-NCZ071-DCZ001-MDZ014-506-PAZ021-071-NJZ106-
NYZ176-178-MAZ106-OHZ011-021-055-MIZ076-KYZ091-ILZ014-INZ047-
MNZ060-ONZ431-240800-

...Gateway Observations for Savannah International...

CITY           SKY/WX    TMP DP  RH WIND       PRES   REMARKS
Savannah Arpt  CLOUDY    71  65  81 S12       29.70F
Atlanta        DRIZZLE   53  52  96 NE10      29.76F FOG
Charlotte      HVY RAIN  52  49  89 NE12      29.83F FOG
Dallas DFW     CLEAR     56  44  64 S6        29.96F
Houston Bush   CLEAR     56  49  77 CALM      29.98S
Wash National  LGT RAIN  55  48  77 E6        30.07F
Wash Dulles    LGT RAIN  52  47  83 E3        30.07F
Baltimore      CLOUDY    53  49  86 E5        30.07F
Philadelphia   CLOUDY    51  45  79 CALM      30.11S
Newark         MOCLDY    49  42  77 S3        30.11F
Laguardia      MOCLDY    51  41  68 S3        30.10F
J F K          MOCLDY    46  45  96 SE3       30.12F
Boston         PTCLDY    46  38  73 SW7       30.10S
Pittsburg      PTCLDY    50  32  50 CALM      30.03S
Akron          PTCLDY    46  31  55 NE9       30.02F
Cleveland      CLEAR     44  35  70 CALM      30.06F
Cincinnati     MOCLDY    56  36  47 NE9       29.94F
Columbus       CLEAR     46  37  71 NE9       29.97F
Detroit        PTCLDY    46  39  76 NE7       30.06F
Chicago O`Hare PTCLDY    42  38  85 NE6       30.02F
Minneapolis    CLOUDY    50  39  66 NE3       29.85F
Indianapolis   CLEAR     49  33  54 NE7       29.98S
Toronto Canada CLEAR     45  34  65 N7        30.09S

$$




USA.gov is the U.S. government's official web portal to all federal, state and local government web resources and services.